Location: Unspecified
(0.0000°N, 0.0000°E)
Time: 03:29:33
(UTC+00:00)

Hubble Space Telescope - Pass Details

Date: 02 February 2023
Orbit: 529 x 532 km, 28.5° (Epoch: 27 January)

Event Time Altitude Azimuth Distance (km) Brightness Sun altitude
Rises 18:37:33 0° 209° (SSW) 2,655 5.1 -5.7°
Reaches altitude 10° 18:40:55 10° 180° (S) 1,764 3.6 -6.5°
Maximum altitude 18:42:48 13° 153° (SSE) 1,588 3.1 -7.0°
Drops below altitude 10° 18:44:41 10° 125° (SE) 1,762 3.0 -7.4°
Enters shadow 18:46:23 - 107° (ESE) 2,150 3.3 -7.8°
